Weather History for KMTH - September, 2013

Change the Weather History Date:

Friday, September 13, 2013

  Actual Average Record
Temperature  
Mean Temperature 84 °F 84 °F  
Max Temperature 90 °F 90 °F - ()
Min Temperature 78 °F 79 °F - ()
Degree Days  
Heating Degree Days 0 0  
Month to date heating degree days 0 0  
Since 1 July heating degree days 0 0  
Cooling Degree Days 19 19  
Month to date cooling degree days 261 250  
Year to date cooling degree days 3982 3636  
Growing Degree Days 34 (Base 50)    
Moisture  
Dew Point 74 °F    
Average Humidity 72    
Maximum Humidity 85    
Minimum Humidity 59    
Precipitation  
Precipitation 0.00 in 0.28 in - ()
Month to date precipitation 0.80 3.49  
Year to date precipitation 40.03 32.31  
Snow  
Snow 0.00 in - - ()
Month to date snowfall 0.0  
Since 1 July snowfall 0.0  
Since 1 September snowfall 0.0  
Snow Depth 0.00 in    
Sea Level Pressure  
Sea Level Pressure 29.87 in    
Wind  
Wind Speed 3 mph (East)    
Max Wind Speed 7 mph    
Max Gust Speed 12 mph    
Visibility 10 miles    
Events      
T = Trace of Precipitation, MM = Missing Value Source: NWS Daily Summary

Daily Weather History Graph

Daily Weather History Graph

Search for Another Location

Airport or City:

Trip Planner

Search our weather history database for the weather conditions in past years. The results will help you decide how hot, cold, wet, or windy it might be!

Date:

Astronomy

Sep. 13, 2013 Rise Set
Actual Time 7:09 AM EDT 7:29 PM EDT
Civil Twilight 6:46 AM EDT 7:52 PM EDT
Nautical Twilight 6:20 AM EDT 8:19 PM EDT
Astronomical Twilight 5:53 AM EDT 8:46 PM EDT
Moon 2:52 PM EDT (9/13) 1:04 AM EDT (9/13)
Length of Visible Light 13h 05m
Length of Day
12h 20m
First Quarter, 61% of the Moon is Illuminated
Sep 13
First Quarter
Sep 19
Full
Sep 26
Last Quarter
Oct 4
New
Oct 11
First Quarter

Hourly Weather History & Observations

Time (EDT) Temp. Heat Index Dew Point Humidity Pressure Visibility Wind Dir Wind Speed Gust Speed Precip Events Conditions
12:53 AM 82.9 °F 89.4 °F 73.9 °F 74% 29.89 in 10.0 mi ESE 5.8 mph - N/A   Clear
1:53 AM 82.9 °F 89.4 °F 73.9 °F 74% 29.87 in 10.0 mi ESE 5.8 mph - N/A   Clear
2:53 AM 82.9 °F 88.8 °F 73.0 °F 72% 29.86 in 10.0 mi SE 4.6 mph - N/A   Clear
3:53 AM 81.0 °F 85.8 °F 73.0 °F 77% 29.86 in 10.0 mi Calm Calm - N/A   Clear
4:53 AM 79.0 °F - 73.0 °F 82% 29.86 in 10.0 mi Calm Calm - N/A   Clear
5:53 AM 78.1 °F - 73.0 °F 84% 29.87 in 10.0 mi Calm Calm - N/A   Clear
6:53 AM 78.1 °F - 73.9 °F 87% 29.89 in 10.0 mi Calm Calm - N/A   Partly Cloudy
7:53 AM 80.1 °F 84.5 °F 73.9 °F 81% 29.89 in 10.0 mi Calm Calm - N/A   Clear
8:53 AM 84.0 °F 91.2 °F 73.9 °F 72% 29.90 in 10.0 mi NE 4.6 mph - N/A   Clear
9:53 AM 84.9 °F 93.3 °F 75.0 °F 72% 29.91 in 10.0 mi ENE 3.5 mph - N/A   Mostly Cloudy
10:01 AM 86.0 °F 93.4 °F 73.4 °F 66% 29.90 in 10.0 mi ESE 4.6 mph - N/A   Mostly Cloudy
10:08 AM 86.0 °F 93.4 °F 73.4 °F 66% 29.90 in 10.0 mi Calm Calm - N/A   Scattered Clouds
10:53 AM 86.0 °F 93.8 °F 73.9 °F 67% 29.91 in 10.0 mi Calm Calm - N/A   Scattered Clouds
11:53 AM 88.0 °F 96.5 °F 73.9 °F 63% 29.90 in 10.0 mi SSE 3.5 mph - N/A   Clear
12:53 PM 88.0 °F 96.5 °F 73.9 °F 63% 29.89 in 10.0 mi Variable 4.6 mph - N/A   Clear
1:53 PM 89.1 °F 98.0 °F 73.9 °F 61% 29.88 in 10.0 mi SSE 4.6 mph - N/A   Clear
2:53 PM 88.0 °F 96.5 °F 73.9 °F 63% 29.86 in 10.0 mi Variable 4.6 mph - N/A   Partly Cloudy
3:53 PM 88.0 °F 96.5 °F 73.9 °F 63% 29.83 in 10.0 mi Variable 5.8 mph - N/A   Clear
4:53 PM 88.0 °F 95.6 °F 73.0 °F 61% 29.82 in 10.0 mi Variable 3.5 mph - N/A   Clear
5:53 PM 86.0 °F 93.0 °F 73.0 °F 65% 29.82 in 10.0 mi East 5.8 mph - N/A   Clear
6:53 PM 84.9 °F 92.1 °F 73.9 °F 69% 29.83 in 10.0 mi ENE 4.6 mph - N/A   Clear
7:53 PM 84.0 °F 91.2 °F 73.9 °F 72% 29.84 in 10.0 mi East 3.5 mph - N/A   Clear
8:53 PM 82.9 °F 88.8 °F 73.0 °F 72% 29.85 in 10.0 mi East 5.8 mph - N/A   Clear
9:53 PM 82.9 °F 89.4 °F 73.9 °F 74% 29.87 in 10.0 mi East 4.6 mph - N/A   Clear
10:53 PM 82.9 °F 88.8 °F 73.0 °F 72% 29.88 in 10.0 mi East 4.6 mph - N/A   Partly Cloudy
11:53 PM 82.9 °F 88.8 °F 73.0 °F 72% 29.87 in 10.0 mi East 3.5 mph - N/A   Partly Cloudy